2006 RB117

Japanese version
Home page
Total 6,336 html files since Dec. 4, 1995
Updated on February 4, 2008

---------------------------------------------------------------------

* Profile

Discovery Date September 14, 2006
Magnitude
Discoverer

* Orbital Elements

The following orbital elements are taken from MPEC 2008-B50:

Epoch 2006 Sept. 2.0 TT = JDT 2453980.5                 MPC
M 326.70598              (2000.0)            P               Q
n   0.08583568     Peri.  104.59588     -0.68012905     -0.73299946
a   5.0896838      Node    28.26873     +0.66275514     -0.62160141
e   0.7107174      Incl.    1.41235     +0.31333703     -0.27626704
P  11.5            H   16.7           G   0.15
From 44 observations 2006 Sept. 14-22.

* Magnitudes Graph

        H = 16.7  G = 0.15

---------------------------------------------------------------------

The orbital elements are published at the MPC Ephemerides and Orbital Elements.
The magnitudes graphs are made with Comet for Windows.

---------------------------------------------------------------------

Copyright(C) 1995-2008 Seiichi Yoshida (comet@aerith.net). All rights reserved.